This is the latest recevied weather packets stored in our database for station/object KY4LEX. If no packets are shown the sender has not sent any weather packets the latest 10 day(s).
| Time | Temp. | Humidity | Pressure | Rain* | Wind** | Luminosity | Snow |
|---|---|---|---|---|---|---|---|
| 1777842121 | 18.33° C | 29% | 1021.4 hPa | 0 mm | - | 391 W/m² | - |
| 1777841512 | 18.33° C | 31% | 1021.7 hPa | 0 mm | - | 417 W/m² | - |
| 1777841209 | 17.78° C | 31% | 1021.9 hPa | 0 mm | - | 430 W/m² | - |
| 1777840603 | 18.33° C | 29% | 1022 hPa | 0 mm | - | 454 W/m² | - |
| 1777840301 | 17.78° C | 28% | 1022.1 hPa | 0 mm | - | 467 W/m² | - |
| 1777839998 | 17.78° C | 28% | 1022.3 hPa | 0 mm | - | 480 W/m² | - |
| 1777839696 | 18.33° C | 30% | 1022.4 hPa | 0 mm | - | 493 W/m² | - |
| 1777839394 | 17.78° C | 32% | 1022.6 hPa | 0 mm | - | 504 W/m² | - |
| 1777839091 | 18.33° C | 32% | 1022.8 hPa | 0 mm | - | 516 W/m² | - |
| 1777838787 | 18.33° C | 33% | 1022.7 hPa | 0 mm | - | 526 W/m² | - |
| 1777838484 | 17.78° C | 31% | 1023 hPa | 0 mm | - | 539 W/m² | - |
| 1777838181 | 17.78° C | 31% | 1023 hPa | 0 mm | - | 550 W/m² | - |
| 1777837878 | 17.22° C | 32% | 1023.3 hPa | 0 mm | - | 560 W/m² | - |
| 1777835448 | 17.22° C | 30% | 1023.6 hPa | 0 mm | - | 637 W/m² | - |
| 1777835145 | 16.67° C | 29% | 1023.6 hPa | 0 mm | - | 645 W/m² | - |
| 1777834539 | 17.22° C | 30% | 1023.7 hPa | 0 mm | - | 656 W/m² | - |
| 1777833935 | 16.67° C | 31% | 1024 hPa | 0 mm | - | 671 W/m² | - |
| 1777833328 | 16.11° C | 32% | 1024 hPa | 0 mm | - | 684 W/m² | - |
| 1777833027 | 16.67° C | 30% | 1024 hPa | 0 mm | - | 690 W/m² | - |
| 1777832421 | 16.67° C | 32% | 1024.3 hPa | 0 mm | - | 674 W/m² | - |
| 1777831814 | 16.67° C | 33% | 1024.4 hPa | 0 mm | - | 705 W/m² | - |
| 1777831512 | 16.67° C | 32% | 1024.4 hPa | 0 mm | - | 709 W/m² | - |
| 1777830301 | 15.56° C | 33% | 1024.6 hPa | 0 mm | - | 718 W/m² | - |
| 1777828479 | 15.56° C | 31% | 1025.5 hPa | 0 mm | - | 718 W/m² | - |
| 1777827268 | 15.56° C | 32% | 1025.8 hPa | 0 mm | - | 710 W/m² | - |
* Rain latest hour (hover to see other rain measurements)
** Current wind speed in m/s (hover to see current wind gust speed)